FENGYUN 1C DEB

Satellite information

Favourite Embed

Satellite Type and Status

DEBRISIN ORBIT

Key statistics

Satellite FENGYUN 1C DEB at a glance.

Uptime

9496

Days in orbit

Revolutions

≈ 14.7

Per day

Orbit

SSO

Sun Synchronous Orbit

Inclination

98.2

Latest

Satellite identification and parameters

Extended collection of information and parameters for FENGYUN 1C DEB.

Object identification

Identified? True

Debris? True

Object name: FENGYUN 1C DEB

International designator: 1999-025CCU

Object number (NORAD): 31686

Object ID (CCSDS): 31686

Country: PEOPLES REPUBLIC OF CHINA (PRC)

Current information (Y/N): Y

RCS size: SMALL

Orbital parameters

Period: 98.113 minutes

Inclination: 98.1712 deg

SMA: 7046.576 km

Apoapsis: 879.095 km

Periapsis: 457.787 km

RAAN: 197.4384 deg

Eccentricy: 0.0298945

Argument of periapsis: 69.8796 deg

Mean anomaly: 293.4307 deg

Mean motion: 14.67694215 rev/day

Mean motion (dot): 0.00012613 rev/day2

B* drag term: 0.0011227 1/REarth

Two-line elements (TLE)

Creation date: May 7, 2025, 6:46 a.m.

Reference frame: TEME

Reference center: EARTH

Epoch: May 6, 2025, 3:27 a.m. UTC

TLE line 0: 0 FENGYUN 1C DEB

TLE line 1: 1 31686U 99025CCU 25126.14380529 .00012613 00000-0 11227-2 0 9995

TLE line 2: 2 31686 98.1712 197.4384 0298945 69.8796 293.4307 14.67694215946677

Live tracking on map

Real-time ground track for satellite FENGYUN 1C DEB.

In-orbit conjunctions

A list of the most updated potential collisions computed for object FENGYUN 1C DEB.

Target Orbit TCA Probability of collision Miss distance Type
CZ-6A DEB LEO 2025-01-31 11:47:44 0.0001178697 383.0 (m) DEBRIS
DELTA 2 R/B(1) LEO 2025-01-23 10:48:42 0.0001332252 606.0 (m) ROCKET BODY

Associated space launch

Chinese polar orbiting meteorological satellite

FENGYUN 1C DEB was lifted into orbit during the mission ‘Long March 4B | Feng Yun 1C’, on board a Long March 4B space rocket.

The launch took place on May 10, 1999, 1:33 a.m. from Launch Complex 7.

For more information about the launch, click the button.

Launch to space Long March 4B | Feng Yun 1C
Long March 4B | Feng Yun 1C

Agency: N/A

Status: Launch Successful

Launch date: May 10, 1999, 1:33 a.m. UTC

Rocket: Long March 4B

Launch pad: Launch Complex 7

Location: Taiyuan Satellite Launch Center, People's Republic of China

...

Latest news about this satellite

There are no fresh news available about this satellite. Check back as we update our databases every day.


Newsletter sign-up

Weekly statistics, charts and insights to help you stay on top of the space industry.